#timestamp,LO_Frequency,Hit,StdDev 
1669676415.4,286046999.6,N
1669676435.2,286046995.3,Y
1669676455.0,286046997.1,P
1669676455.9,286046997.1,P
1669676475.8,286046996.6,P
1669676495.6,286046996.1,Y
1669676515.5,286047000.6,P
1669676535.3,286047001.7,N
1669676555.1,286047004.4,N
1669676575.9,286047002.1,N
1669676595.7,286047002.7,N
1669676615.5,286047004.3,N
1669676635.4,286047004.4,N
1669676655.2,286047004.1,N
1669676675.0,286047004.2,N
1669676676.0,286047004.2,N
1669676695.8,286047003.2,N
1669676715.6,286047003.6,N
1669676735.5,286047003.9,N
1669676755.3,286047005.9,Y
1669676775.1,286047001.4,P
1669676795.9,286047001.6,N
1669676815.7,286047001.7,N
1669676835.6,286047002.0,Y
1669676855.4,286047000.6,P
1669676875.2,286047001.1,N
1669676895.1,286046998.3,P
1669676896.0,286046998.3,N
1669676915.8,286046997.8,N
1669676935.7,286046997.8,N
1669676955.5,286046996.8,N
1669676975.3,286046997.8,N
1669676995.2,286046996.1,N
1669677015.0,286046997.4,N
1669677015.9,286046997.4,N
1669677035.7,286046997.9,N
1669677055.6,286046997.7,N
1669677075.4,286046997.2,N
1669677095.3,286046999.6,N
1669677115.1,286046996.6,N
1669677135.8,286046996.8,N
1669677155.7,286046999.1,N
1669677175.5,286046996.5,N
1669677195.4,286046997.1,N
1669677215.2,286046996.6,N
1669677235.0,286046996.8,N
1669677235.9,286046996.8,N
1669677255.8,286046996.6,N
1669677275.6,286046998.2,N
1669677295.4,286047000.7,N
1669677315.3,286047000.4,N
1669677335.1,286047000.4,N
1669677355.9,286047002.8,N
1669677375.7,286047002.7,N
1669677395.5,286046999.8,N
1669677415.4,286047002.4,N
1669677435.2,286047000.1,N
1669677455.1,286047000.2,N
1669677456.0,286047000.2,N
1669677475.8,286047002.3,N
1669677495.6,286047000.1,N
1669677515.7,286047000.0,N
1669677535.6,286047002.8,N
1669677555.4,286047000.1,N
1669677575.2,286047001.0,N
1669677595.1,286046998.6,N
1669677596.0,286046998.6,N
1669677615.8,286047000.4,N
1669677635.7,286046998.1,N
1669677655.5,286046998.2,N
1669677675.3,286047001.1,N
1669677695.2,286047001.2,N
1669677715.0,286046998.2,N
1669677715.9,286046998.2,N
1669677735.8,286047001.0,N
1669677755.6,286047000.9,N
1669677775.4,286047001.0,N
1669677795.3,286046998.2,N
1669677815.1,286047000.4,N
1669677835.8,286046999.7,N
1669677855.7,286047002.3,N
1669677875.5,286047002.4,N
1669677895.4,286047002.0,N
1669677915.2,286047002.1,N
1669677935.0,286047000.3,N
1669677935.9,286047000.3,N
1669677955.8,286047000.1,N
1669677975.6,286047000.1,N
1669677995.5,286047000.7,N
1669678015.3,286047000.3,N
1669678035.1,286047000.0,N
1669678055.9,286047001.0,N
1669678075.7,286046998.3,N
1669678095.5,286046999.4,N
1669678115.4,286046999.1,N
1669678135.2,286046996.7,N
1669678155.1,286046999.2,N
1669678156.0,286046999.2,N
1669678175.8,286046998.9,N
1669678195.6,286046999.1,N
1669678215.5,286046996.8,N
1669678235.3,286046998.8,N
1669678255.1,286046998.3,N
1669678275.9,286047001.1,N
1669678295.7,286046996.9,N
1669678315.6,286046999.6,N
1669678335.4,286046998.5,N
1669678355.2,286046998.5,N
1669678375.1,286046999.0,N
1669678376.0,286046999.0,N
1669678395.8,286046997.0,N
1669678415.7,286046996.8,N
1669678435.5,286046999.2,N
1669678455.3,286046996.6,N
1669678475.2,286046997.3,N
1669678495.9,286046997.1,N
1669678515.7,286046998.6,N
1669678535.6,286046997.3,N
1669678555.4,286046999.0,N
1669678575.3,286046996.1,Y
1669678595.1,286046995.0,P
1669678596.0,286046995.0,N
1669678615.8,286046995.0,P
1669678635.7,286046997.4,N
1669678655.5,286046996.7,N
1669678675.3,286046998.5,N
1669678695.2,286046998.8,N
1669678715.0,286046998.2,N
1669678715.9,286046998.2,N
1669678735.8,286047001.0,N
1669678755.6,286047000.7,N
1669678775.4,286047000.8,N
1669678795.3,286046998.1,N
1669678815.1,286047000.2,N
1669678835.8,286047000.3,N
1669678855.7,286046999.8,N
1669678875.5,286047000.0,N
1669678895.4,286046998.5,N
1669678915.2,286047000.5,N
1669678935.0,286047000.0,N
1669678935.9,286047000.0,N
1669678955.8,286047000.0,N
1669678975.6,286047001.2,N
1669678995.4,286047000.7,N
1669679015.3,286047000.3,N
1669679035.1,286046998.5,N
1669679055.9,286047000.6,N
1669679075.7,286046998.5,N
1669679095.5,286047000.9,N
1669679115.4,286047000.9,N
1669679135.2,286046998.6,N
1669679155.1,286046998.8,N
1669679156.0,286046998.8,N
1669679175.8,286047000.6,N
1669679195.6,286047000.2,N
1669679215.5,286046999.7,N
1669679235.3,286047000.3,N
1669679255.2,286046999.8,N
1669679275.9,286047000.5,N
1669679295.7,286046998.8,N
1669679315.6,286046998.6,N
1669679335.4,286047000.8,N
1669679355.2,286047000.0,N
1669679375.1,286046998.5,N
1669679376.0,286046998.5,N
1669679395.8,286047000.7,N
1669679415.7,286047000.4,N
1669679435.5,286047000.0,N
1669679455.3,286047002.4,N
1669679475.2,286046999.8,N
1669679495.0,286047002.6,N
1669679495.9,286047002.6,N
1669679515.8,286047000.0,N
1669679535.6,286046999.3,N
1669679555.4,286046998.7,N
1669679575.3,286046998.8,N
1669679595.1,286047000.5,N
1669679615.8,286047000.0,N
1669679635.7,286047001.1,N
1669679655.5,286046999.7,N
1669679675.4,286047002.6,N
1669679695.2,286047000.3,N
1669679715.0,286047002.2,N
1669679715.9,286047002.2,N
1669679735.8,286047002.0,N
1669679755.6,286047001.6,N
1669679775.4,286046999.8,N
1669679795.3,286047000.1,N
1669679815.1,286047002.0,N
1669679835.9,286047001.6,N
1669679855.7,286047000.2,N
1669679875.5,286046998.6,N
1669679895.4,286046998.5,N
1669679915.2,286046999.5,N
1669679935.0,286046997.4,N
1669679935.9,286046997.4,N
1669679955.8,286046996.6,N
1669679975.7,286046999.1,N
1669679995.5,286047000.9,N
